Location: Unspecified
(47.9110°N, 14.3980°E)
Time: 08:24:05
(UTC+00:00)

Cosmos 1190 Rocket - Pass Details

Date: 06 August 2020
Orbit: 756 x 780 km, 74.1° (Epoch: 26 September)

Event Time Altitude Azimuth Distance (km) Brightness Sun altitude
Exits shadow 19:49:22 - 173° (S) 2,524 6.2 -11.9°
Reaches altitude 10° 19:49:58 10° 171° (S) 2,306 6.0 -12.0°
Maximum altitude 19:54:49 40° 103° (ESE) 1,137 4.5 -12.6°
Drops below altitude 10° 19:59:43 10° 36° (NE) 2,336 6.6 -13.2°
Sets 20:02:14 0° 29° (NNE) 3,271 7.5 -13.5°
